Stations météo

réclame
Mon MeteoGroup
Ostersund/Froson, Suède (2226): Température de l'air & dewpoint: 16.10.2018 16:00:00 - 22.10.2018 16:00:00 (CEST)Ostersund/Froson, Suède (2226): Vitesse du vent: 16.10.2018 16:00:00 - 22.10.2018 16:00:00 (CEST)Ostersund/Froson, Suède (2226): Direction du vent: 16.10.2018 16:00:00 - 22.10.2018 16:00:00 (CEST)Ostersund/Froson, Suède (2226): reduced air pressure: 16.10.2018 16:00:00 - 22.10.2018 16:00:00 (CEST)Ostersund/Froson, Suède (2226): visibility: 16.10.2018 16:00:00 - 22.10.2018 16:00:00 (CEST)
Date & Time tt [°C] td [°C] ff [km/h] ff [knt] dd ppp [hPa] vv [km]
22.10.2018 16:00:00 4,0 -0,2 41 22 WNW 1005,0 10
22.10.2018 15:00:00 4,7 0,1 41 22 WNW 1004,7 10
22.10.2018 14:00:00 4,4 0,7 42 23 WNW 1004,1 10
22.10.2018 13:00:00 4,6 -0,4 31 17 W 1003,7 10
22.10.2018 12:00:00 3,1 -0,2 29 16 W 1004,3 10
22.10.2018 11:00:00 4,0 -1,6 24 13 W 1004,3 10
22.10.2018 10:00:00 3,4 -1,0 24 13 W 1004,4 10
22.10.2018 09:00:00 2,4 -1,2 16 9 S 1003,8 10
22.10.2018 08:00:00 3,5 -2,5 9 5 SW 1003,6 10
22.10.2018 07:00:00 2,9 -0,4 16 9 SW 1003,8 10
22.10.2018 06:00:00 2,6 0,2 18 10 SSW 1004,3 10
22.10.2018 05:00:00 2,7 -0,8 11 6 SSW 1004,2 10
22.10.2018 04:00:00 3,3 -0,5 13 7 W 1004,6 10
22.10.2018 03:00:00 3,9 0,1 16 9 W 1004,8 10
22.10.2018 02:00:00 3,9 0,4 22 12 WNW 1005,0 10
22.10.2018 01:00:00 4,3 1,3 26 14 WNW 1004,6 10
22.10.2018 00:00:00 4,7 2,2 26 14 WNW 1004,5 10
21.10.2018 23:00:00 4,4 2,7 18 10 WNW 1004,3 10
21.10.2018 22:00:00 4,5 3,0 18 10 NW 1004,3 10
21.10.2018 21:00:00 5,5 4,3 18 10 W 1004,5 10
21.10.2018 20:00:00 5,7 4,7 9 5 WNW 1004,9 10
21.10.2018 19:00:00 5,7 5,0 11 6 WNW 1005,4 10
21.10.2018 18:00:00 5,9 4,9 4 2 - 1005,7 8
21.10.2018 17:00:00 5,9 5,0 11 6 NNW 1006,4 5
21.10.2018 16:00:00 7,0 4,8 4 2 NW 1007,0 10
21.10.2018 15:00:00 7,3 5,6 11 6 NNW 1007,2 10
21.10.2018 14:00:00 7,4 5,2 5 3 S 1007,8 10
21.10.2018 13:00:00 7,2 5,3 4 2 - 1007,9 10
21.10.2018 12:00:00 7,1 4,6 13 7 S 1009,0 10
21.10.2018 11:00:00 6,6 4,4 8 4 S 1008,8 10
21.10.2018 10:00:00 6,3 4,3 13 7 S 1008,9 10
21.10.2018 09:00:00 6,1 4,3 13 7 S 1009,2 10
21.10.2018 08:00:00 5,7 4,3 21 11 S 1009,0 10
21.10.2018 07:00:00 5,5 4,5 13 7 S 1010,2 10
21.10.2018 06:00:00 5,4 4,2 18 10 S 1009,8 10
21.10.2018 05:00:00 4,8 3,6 21 11 S 1010,5 10
21.10.2018 04:00:00 4,8 3,3 26 14 SSW 1011,2 10
21.10.2018 03:00:00 4,8 2,8 26 14 S 1012,0 10
21.10.2018 02:00:00 5,0 2,5 26 14 S 1012,5 10
21.10.2018 01:00:00 5,8 1,5 21 11 S 1013,9 10
21.10.2018 00:00:00 5,7 1,0 22 12 S 1014,6 10
20.10.2018 23:00:00 5,2 1,5 16 9 S 1016,3 10
20.10.2018 22:00:00 5,2 1,5 16 9 S 1016,8 10
20.10.2018 21:00:00 5,2 2,2 11 6 S 1018,1 10
20.10.2018 20:00:00 4,6 1,3 15 8 SSE 1018,9 10
20.10.2018 19:00:00 4,9 0,8 11 6 S 1019,7 10
20.10.2018 18:00:00 6,1 1,6 5 3 S 1019,7 10
20.10.2018 17:00:00 7,1 1,8 8 4 W 1019,6 10
20.10.2018 16:00:00 7,4 2,3 9 5 W 1020,0 10
20.10.2018 15:00:00 7,0 2,7 18 10 W 1020,1 10
20.10.2018 14:00:00 7,4 2,9 18 10 NW 1020,2 10
20.10.2018 13:00:00 7,1 3,5 18 10 NW 1020,5 10
20.10.2018 12:00:00 6,6 3,4 18 10 WNW 1020,1 10
20.10.2018 11:00:00 6,2 3,2 15 8 WNW 1020,0 10
20.10.2018 10:00:00 5,5 3,3 13 7 NW 1019,5 10
20.10.2018 09:00:00 5,2 3,1 15 8 WNW 1019,2 10
20.10.2018 08:00:00 4,6 3,3 11 6 WNW 1018,5 10
20.10.2018 07:00:00 4,6 2,6 9 5 NW 1018,0 10
20.10.2018 06:00:00 5,1 1,6 8 4 W 1017,5 10
20.10.2018 05:00:00 4,0 1,0 0 0 N 1017,2 10
20.10.2018 04:00:00 4,9 0,8 4 2 - 1016,8 10
20.10.2018 03:00:00 5,0 0,6 5 3 - 1016,6 10
20.10.2018 02:00:00 5,3 0,5 15 8 S 1016,6 10
20.10.2018 01:00:00 6,0 0,1 13 7 SSE 1016,9 10
20.10.2018 00:00:00 5,7 1,2 9 5 SSE 1017,5 10
19.10.2018 23:00:00 6,4 1,7 11 6 SSE 1017,5 10
19.10.2018 22:00:00 6,1 2,4 11 6 SSE 1017,8 10
19.10.2018 21:00:00 4,9 2,9 9 5 SE 1018,3 10
19.10.2018 20:00:00 5,3 2,8 11 6 SSE 1018,5 10
19.10.2018 19:00:00 6,0 1,9 5 3 SE 1018,7 10
19.10.2018 18:00:00 6,4 3,4 4 2 SE 1018,9 10
19.10.2018 17:00:00 6,9 3,9 4 2 - 1019,0 10
19.10.2018 16:00:00 7,4 3,8 11 6 W 1019,4 10
19.10.2018 15:00:00 7,6 3,8 15 8 WNW 1019,7 10
19.10.2018 14:00:00 7,3 3,7 15 8 W 1019,8 10
19.10.2018 13:00:00 7,2 3,6 18 10 WNW 1019,9 10
19.10.2018 12:00:00 6,9 3,5 15 8 W 1020,0 10
19.10.2018 11:00:00 6,3 2,7 13 7 WSW 1020,4 10
19.10.2018 10:00:00 5,9 2,5 21 11 W 1020,4 10
19.10.2018 09:00:00 5,5 2,3 18 10 W 1019,8 10
19.10.2018 08:00:00 4,9 1,9 18 10 WNW 1019,7 10
19.10.2018 07:00:00 4,7 2,2 22 12 W 1019,7 10
19.10.2018 06:00:00 5,1 2,1 18 10 W 1019,5 10
19.10.2018 05:00:00 4,5 1,7 22 12 WNW 1019,7 10
19.10.2018 04:00:00 5,3 1,6 31 17 WNW 1019,4 10
19.10.2018 03:00:00 4,9 1,9 34 18 WNW 1018,8 10
19.10.2018 02:00:00 5,4 1,3 31 17 WNW 1018,6 10
19.10.2018 01:00:00 5,3 1,2 41 22 WNW 1018,5 10
19.10.2018 00:00:00 5,6 1,7 26 14 W 1018,5 10
18.10.2018 23:00:00 5,6 1,0 31 17 WNW 1018,1 10
18.10.2018 22:00:00 5,5 1,0 35 19 W 1017,5 10
18.10.2018 21:00:00 5,6 1,5 34 18 W 1017,7 10
18.10.2018 20:00:00 5,8 0,9 39 21 W 1017,2 10
18.10.2018 19:00:00 6,1 1,2 37 20 W 1016,9 10
18.10.2018 18:00:00 6,5 0,8 28 15 WNW 1016,5 10
18.10.2018 17:00:00 7,1 1,4 34 18 WNW 1016,0 10
18.10.2018 16:00:00 7,4 1,3 26 14 WNW 1015,2 10
18.10.2018 15:00:00 7,0 1,5 37 20 WNW 1015,0 10
18.10.2018 14:00:00 7,5 0,7 26 14 W 1014,6 10
18.10.2018 13:00:00 8,3 1,4 24 13 W 1014,2 10
18.10.2018 12:00:00 7,0 0,9 24 13 W 1014,1 10
18.10.2018 11:00:00 6,5 2,2 15 8 W 1014,5 10
18.10.2018 10:00:00 5,4 2,9 29 16 W 1014,5 10
18.10.2018 09:00:00 4,5 3,5 11 6 WSW 1014,4 10
18.10.2018 08:00:00 4,6 3,1 9 5 SW 1013,4 10
18.10.2018 07:00:00 5,3 2,8 11 6 WSW 1012,8 10
18.10.2018 06:00:00 5,5 3,0 11 6 W 1012,7 10
18.10.2018 05:00:00 5,6 3,3 11 6 W 1012,8 10
18.10.2018 04:00:00 5,9 3,9 11 6 NW 1012,7 10
18.10.2018 03:00:00 6,3 4,5 5 3 W 1012,8 10
18.10.2018 02:00:00 6,5 3,8 11 6 NW 1012,8 10
18.10.2018 01:00:00 7,1 3,9 15 8 NW 1012,6 10
18.10.2018 00:00:00 7,5 4,6 13 7 NW 1012,3 10
17.10.2018 23:00:00 7,5 4,6 13 7 NW 1011,9 10
17.10.2018 22:00:00 7,9 4,7 16 9 WNW 1011,2 10
17.10.2018 21:00:00 9,2 5,0 11 6 SW 1010,1 10
17.10.2018 20:00:00 9,1 5,1 9 5 SW 1009,5 10
17.10.2018 19:00:00 9,0 5,0 11 6 SW 1009,1 10
17.10.2018 18:00:00 9,8 5,4 13 7 SW 1008,7 10
17.10.2018 17:00:00 10,2 6,0 15 8 SSW 1008,3 10
17.10.2018 16:00:00 11,2 6,3 13 7 S 1008,1 10
17.10.2018 15:00:00 11,2 6,1 16 9 S 1008,1 10
17.10.2018 14:00:00 11,3 5,8 18 10 SSW 1008,1 10
17.10.2018 13:00:00 10,6 5,6 18 10 SSW 1008,4 10
17.10.2018 12:00:00 10,0 5,4 22 12 SSW 1008,4 10
17.10.2018 11:00:00 8,6 5,0 18 10 SSW 1009,4 10
17.10.2018 10:00:00 7,5 4,6 18 10 S 1009,6 10
17.10.2018 09:00:00 7,1 4,6 18 10 S 1009,4 10
17.10.2018 08:00:00 6,7 4,5 22 12 S 1009,7 10
17.10.2018 07:00:00 6,3 4,5 24 13 S 1010,1 10
17.10.2018 06:00:00 6,3 4,1 26 14 S 1010,5 10
17.10.2018 05:00:00 6,2 3,7 28 15 S 1011,2 10
17.10.2018 04:00:00 5,7 3,7 22 12 SSE 1012,0 10
17.10.2018 03:00:00 4,9 3,4 26 14 SSE 1012,5 10
17.10.2018 02:00:00 5,0 3,0 26 14 SSE 1013,1 10
17.10.2018 01:00:00 4,8 3,3 22 12 S 1014,0 10
17.10.2018 00:00:00 5,2 3,4 21 11 SSE 1014,4 10
16.10.2018 23:00:00 5,2 2,7 18 10 SE 1015,0 10
16.10.2018 22:00:00 5,5 3,0 16 9 SSE 1015,9 10
16.10.2018 21:00:00 6,0 3,2 18 10 SE 1016,1 10
16.10.2018 20:00:00 6,1 2,9 16 9 SSE 1016,8 10
16.10.2018 19:00:00 6,2 2,8 21 11 SSE 1017,3 10
16.10.2018 18:00:00 6,5 2,8 13 7 SSE 1017,8 10
16.10.2018 17:00:00 7,6 1,9 15 8 SSE 1018,0 10
16.10.2018 16:00:00 8,3 1,9 15 8 S 1018,0 10

tt = Température de l'air
td = dewpoint
ff = Vitesse du vent
dd = Direction du vent
ppp = reduced air pressure
vv = visibility

stations d'obs. à proximité